GW4740 Weather Reports


Display with metric or nautical units.
time (UTC)temp
F
wind
direction
speed
MPH
gust
MPH
rain 1hr
in
rain 24hr
in
rain mn
in
humidity
%
barometer
mb
20260510154532 61 37 13.0 23.0 0.00 0.00 0.00 52 1020.9
20260510153029 62 31 14.0 21.0 0.00 0.00 0.00 52 1021.1
20260510151518 62 40 13.0 25.0 0.00 0.00 0.00 51 1021.4
20260510150023 62 359 14.0 22.0 0.00 0.00 0.00 53 1021.5
20260510144508 62 5 12.0 23.0 0.00 0.00 0.00 54 1021.1
20260510143012 62 342 13.0 24.0 0.00 0.00 0.00 54 1021.0
20260510141517 61 22 14.0 24.0 0.00 0.00 0.00 55 1020.6
20260510140022 60 333 12.0 27.0 0.00 0.00 0.00 56 1020.5
20260510134505 60 5 13.0 23.0 0.00 0.00 0.00 55 1020.1
20260510133009 60 8 13.0 23.0 0.00 0.00 0.00 54 1019.4
20260510131517 60 31 9.0 23.0 0.00 0.00 0.00 53 1019.1
20260510130018 60 2 11.0 23.0 0.00 0.00 0.00 54 1018.8
20260510124526 60 4 12.0 24.0 0.00 0.00 0.00 53 1018.5
20260510123006 60 360 10.0 21.0 0.00 0.00 0.00 52 1018.3
20260510121513 61 360 8.0 22.0 0.00 0.00 0.00 51 1017.9
20260510120027 61 360 12.0 20.0 0.00 0.00 0.00 51 1018.0
20260510114522 62 1 17.0 25.0 0.00 0.00 0.00 50 1017.7
20260510113026 63 360 7.0 18.0 0.00 0.00 0.00 48 1017.5
20260510111512 63 6 12.0 23.0 0.00 0.00 0.00 48 1016.4
20260510110023 65 15 15.0 24.0 0.00 0.00 0.00 44 1015.0
20260510104520 66 20 16.0 26.0 0.00 0.00 0.00 37 1014.2
20260510103023 68 46 11.0 21.0 0.00 0.00 0.00 33 1014.2
20260510101526 69 20 9.0 15.0 0.00 0.00 0.00 30 1014.0
20260510100014 70 10 4.0 9.0 0.00 0.00 0.00 29 1013.4
20260510094525 69 1 3.0 9.0 0.00 0.00 0.00 29 1013.1
20260510093024 69 325 2.0 3.0 0.00 0.00 0.00 28 1012.9
20260510091527 69 158 2.0 3.0 0.00 0.00 0.00 26 1012.7
20260510090028 70 335 0.0 4.0 0.00 0.00 0.00 25 1012.7
20260510084514 71 330 3.0 7.0 0.00 0.00 0.00 25 1012.5
20260510083020 70 35 1.0 5.0 0.00 0.00 0.00 24 1012.1
20260510081527 71 359 3.0 6.0 0.00 0.00 0.00 23 1012.2
20260510080029 72 6 4.0 9.0 0.00 0.00 0.00 22 1012.1
20260510074533 73 15 3.0 7.0 0.00 0.00 0.00 22 1011.8
20260510073016 74 5 4.0 7.0 0.00 0.00 0.00 21 1012.1
20260510071503 75 354 3.0 7.0 0.00 0.00 0.00 20 1012.4
20260510070007 76 335 0.0 4.0 0.00 0.00 0.00 19 1012.2
20260510064510 77 8 5.0 9.0 0.00 0.00 0.00 18 1012.3
20260510063019 76 331 3.0 7.0 0.00 0.00 0.00 18 1012.1
20260510061505 77 293 2.0 3.0 0.00 0.00 0.00 18 1012.5
20260510060018 77 314 1.0 8.0 0.00 0.00 0.00 17 1012.2
20260510054512 76 355 3.0 6.0 0.00 0.00 0.00 16 1011.8
20260510053016 75 333 4.0 7.0 0.00 0.00 0.00 15 1011.6
20260510051521 74 260 5.0 9.0 0.00 0.00 0.00 16 1011.2
20260510050005 73 242 2.0 6.0 0.00 0.00 0.00 17 1011.0
20260510044510 71 257 2.0 6.0 0.00 0.00 0.00 19 1011.0
20260510043016 73 230 2.0 3.0 0.00 0.00 0.00 23 1010.9
20260510041520 73 313 0.0 2.0 0.00 0.00 0.00 22 1010.5
20260510040025 74 311 0.0 3.0 0.00 0.00 0.00 20 1010.3
20260510034508 74 151 0.0 2.0 0.00 0.00 0.00 21 1010.0
20260510033013 76 150 0.0 2.0 0.00 0.00 0.00 20 1009.8
20260510031518 77 151 0.0 0.0 0.00 0.00 0.00 17 1009.8
20260510030020 78 151 0.0 2.0 0.00 0.00 0.00 16 1009.6
20260510024524 79 151 0.0 2.0 0.00 0.00 0.00 15 1009.4
20260510023027 80 140 1.0 4.0 0.00 0.00 0.00 15 1009.1
20260510021518 81 182 3.0 7.0 0.00 0.00 0.00 13 1009.0
20260510020020 83 193 2.0 4.0 0.00 0.00 0.00 12 1008.9
20260510014527 85 195 0.0 3.0 0.00 0.00 0.00 11 1008.8
20260510013027 87 242 1.0 6.0 0.00 0.00 0.00 10 1008.6
20260510011516 89 254 3.0 8.0 0.00 0.00 0.00 8 1008.5
20260510010025 90 255 6.0 13.0 0.00 0.00 0.00 8 1008.3
20260510004524 91 300 8.0 14.0 0.00 0.00 0.00 7 1008.2
20260510003028 92 289 6.0 16.0 0.00 0.00 0.00 7 1008.3
20260510001526 92 271 5.0 14.0 0.00 0.00 0.00 7 1008.3
20260510000018 93 306 7.0 15.0 0.00 0.00 0.00 1008.3
20260509234524 93 281 6.0 11.0 0.00 0.00 0.00 8 1008.2
20260509233029 91 255 3.0 15.0 0.00 0.00 0.00 11 1008.4
20260509231528 91 172 9.0 16.0 0.00 0.00 0.00 10 1008.3
20260509230016 91 232 8.0 14.0 0.00 0.00 0.00 11 1008.5
20260509224521 90 191 4.0 9.0 0.00 0.00 0.00 11 1008.5
20260509223028 91 205 5.0 10.0 0.00 0.00 0.00 11 1008.6
20260509221532 91 230 2.0 5.0 0.00 0.00 0.00 10 1008.8
20260509220025 91 326 6.0 12.0 0.00 0.00 0.00 9 1008.9
20260509214518 91 237 6.0 12.0 0.00 0.00 0.00 10 1009.2
20260509213024 92 243 9.0 14.0 0.00 0.00 0.00 9 1009.4
20260509211504 95 229 5.0 14.0 0.00 0.00 0.00 8 1009.5
20260509210015 94 271 5.0 18.0 0.00 0.00 0.00 9 1009.7
20260509204503 94 266 12.0 19.0 0.00 0.00 0.00 9 1010.1
20260509203006 94 219 2.0 8.0 0.00 0.00 0.00 10 1010.3
20260509201506 92 172 3.0 8.0 0.00 0.00 0.00 10 1010.6
20260509200011 91 352 1.0 10.0 0.00 0.00 0.00 10 1010.9
20260509194518 93 314 4.0 10.0 0.00 0.00 0.00 10 1011.1
20260509193002 92 286 4.0 9.0 0.00 0.00 0.00 11 1011.2
20260509191504 91 292 3.0 11.0 0.00 0.00 0.00 11 1011.8
20260509190007 90 249 5.0 10.0 0.00 0.00 0.00 12 1012.2
20260509184515 90 285 4.0 14.0 0.00 0.00 0.00 12 1012.4
20260509183021 90 352 6.0 13.0 0.00 0.00 0.00 13 1012.8
20260509181504 89 323 4.0 10.0 0.00 0.00 0.00 14 1013.0
20260509180006 88 310 6.0 10.0 0.00 0.00 0.00 15 1013.4
20260509174510 87 321 3.0 7.0 0.00 0.00 0.00 16 1013.6
20260509173015 85 353 3.0 9.0 0.00 0.00 0.00 17 1013.8
20260509171520 83 302 5.0 9.0 0.00 0.00 0.00 18 1014.0
20260509170008 81 347 4.0 9.0 0.00 0.00 0.00 19 1014.2
20260509164512 79 300 4.0 10.0 0.00 0.00 0.00 22 1014.5
20260509163014 78 305 3.0 8.0 0.00 0.00 0.00 23 1014.5
20260509161522 76 334 4.0 9.0 0.00 0.00 0.00 25 1014.7
20260509160004 75 297 6.0 10.0 0.00 0.00 0.00 27 1014.7